TimeAKST,TemperatureF,Dew PointF,Humidity,Sea Level PressureIn,VisibilityMPH,Wind Direction,Wind SpeedMPH,Gust SpeedMPH,PrecipitationIn,Events,Conditions,WindDirDegrees,DateUTC
12:17 AM,-18.4,-25.6,70,30.82,1.5,East,4.6,-,N/A,,Haze,100,2013-12-12 09:17:00
12:20 AM,-18.4,-25.6,70,30.82,1.0,East,3.5,-,N/A,,Haze,100,2013-12-12 09:20:00
12:26 AM,-18.4,-25.6,70,30.82,1.2,East,3.5,-,N/A,,Haze,90,2013-12-12 09:26:00
12:30 AM,-18.4,-25.6,70,30.82,2.0,East,3.5,-,N/A,,Haze,90,2013-12-12 09:30:00
12:37 AM,-18.4,-25.6,70,30.82,1.5,East,3.5,-,N/A,,Haze,90,2013-12-12 09:37:00
12:46 AM,-18.4,-25.6,70,30.82,1.0,East,4.6,-,N/A,,Haze,90,2013-12-12 09:46:00
12:56 AM,-18.9,-24.9,74,30.84,0.5,East,5.8,-,N/A,,Haze,100,2013-12-12 09:56:00
1:32 AM,-18.4,-25.6,70,30.82,0.2,East,6.9,-,N/A,,Haze,100,2013-12-12 10:32:00
1:56 AM,-18.9,-24.9,74,30.84,0.5,East,6.9,-,0.00,Snow,Snow,100,2013-12-12 10:56:00
2:23 AM,-20.2,-25.6,76,30.80,0.8,East,8.1,-,0.00,Snow,Light Snow,100,2013-12-12 11:23:00
2:49 AM,-20.2,-27.4,69,30.80,1.0,East,8.1,-,0.00,Snow,Light Snow,100,2013-12-12 11:49:00
2:56 AM,-20.2,-27.4,69,30.80,1.0,East,8.1,-,N/A,Snow,Light Snow,100,2013-12-12 11:56:00
3:14 AM,-20.2,-27.4,69,30.80,1.5,ESE,5.8,-,0.00,Snow,Light Snow,120,2013-12-12 12:14:00
3:19 AM,-20.2,-27.4,69,30.80,3.0,ESE,4.6,-,0.00,Snow,Light Snow,120,2013-12-12 12:19:00
3:56 AM,-20.9,-26.9,74,30.82,10.0,East,4.6,-,0.00,Snow,Light Snow,100,2013-12-12 12:56:00
4:56 AM,-19.8,-26.0,73,30.80,10.0,East,4.6,-,0.00,,Overcast,100,2013-12-12 13:56:00
5:56 AM,-20.2,-25.6,76,30.76,2.5,ESE,4.6,-,N/A,Snow,Light Snow,110,2013-12-12 14:56:00
6:04 AM,-20.2,-25.6,76,30.76,1.2,ESE,4.6,-,0.00,Snow,Light Snow,110,2013-12-12 15:04:00
6:45 AM,-20.2,-27.4,69,30.75,2.0,ESE,5.8,-,0.00,Snow,Light Snow,110,2013-12-12 15:45:00
6:56 AM,-22.0,-27.9,74,30.77,8.0,ESE,5.8,-,0.00,,Overcast,110,2013-12-12 15:56:00
7:56 AM,-22.0,-28.8,71,30.76,10.0,ESE,5.8,-,0.00,Snow,Light Snow,110,2013-12-12 16:56:00
8:24 AM,-22.0,-29.2,69,30.72,10.0,ESE,4.6,-,0.00,Snow,Light Snow,120,2013-12-12 17:24:00
8:38 AM,-22.0,-29.2,69,30.72,10.0,North,-9999.0,-,0.00,,Mostly Cloudy,0,2013-12-12 17:38:00
8:56 AM,-22.0,-29.2,69,30.71,10.0,ESE,5.8,-,N/A,Snow,Light Snow,110,2013-12-12 17:56:00
9:56 AM,-22.0,-28.8,71,30.73,10.0,ESE,5.8,-,0.00,,Overcast,110,2013-12-12 18:56:00
10:34 AM,-23.8,-29.2,76,30.68,10.0,ESE,5.8,-,0.00,,Overcast,110,2013-12-12 19:34:00
10:56 AM,-22.0,-28.8,71,30.71,10.0,ESE,4.6,-,0.00,,Overcast,110,2013-12-12 19:56:00
11:23 AM,-23.8,-29.2,76,30.68,10.0,ESE,4.6,-,N/A,,Overcast,120,2013-12-12 20:23:00
11:56 AM,-22.9,-29.9,70,30.69,10.0,ESE,4.6,-,N/A,,Overcast,120,2013-12-12 20:56:00
12:43 PM,-23.8,-31.0,69,30.66,10.0,ESE,3.5,-,N/A,,Mostly Cloudy,110,2013-12-12 21:43:00
12:56 PM,-24.0,-29.9,74,30.68,9.0,ESE,4.6,-,N/A,,Overcast,110,2013-12-12 21:56:00
1:56 PM,-24.0,-31.0,70,30.65,10.0,ESE,5.8,-,0.00,Snow,Light Snow,110,2013-12-12 22:56:00
2:20 PM,-25.6,-32.8,69,30.62,10.0,ESE,4.6,-,0.00,Snow,Light Snow,110,2013-12-12 23:20:00
2:27 PM,-25.6,-32.8,69,30.62,10.0,ESE,4.6,-,0.00,,Mostly Cloudy,110,2013-12-12 23:27:00
2:35 PM,-25.6,-31.0,76,30.60,10.0,ESE,5.8,-,0.00,,Scattered Clouds,110,2013-12-12 23:35:00
2:56 PM,-24.9,-31.9,70,30.64,10.0,ESE,4.6,-,0.00,,Scattered Clouds,110,2013-12-12 23:56:00
3:56 PM,-26.0,-31.9,73,30.60,10.0,ESE,5.8,-,0.00,Snow,Light Snow,110,2013-12-13 00:56:00
4:56 PM,-24.9,-31.9,70,30.58,10.0,ESE,4.6,-,0.00,,Clear,110,2013-12-13 01:56:00
5:56 PM,-26.0,-33.0,69,30.56,10.0,ESE,4.6,-,0.00,Snow,Light Snow,120,2013-12-13 02:56:00
6:56 PM,-26.0,-33.0,69,30.54,10.0,SE,4.6,-,0.00,,Clear,130,2013-12-13 03:56:00
7:56 PM,-26.9,-33.9,69,30.52,10.0,ESE,3.5,-,N/A,,Clear,110,2013-12-13 04:56:00
8:56 PM,-24.9,-31.9,70,30.50,10.0,ESE,3.5,-,N/A,,Clear,110,2013-12-13 05:56:00
9:49 PM,-27.4,-34.6,69,30.44,10.0,ESE,3.5,-,N/A,,Scattered Clouds,120,2013-12-13 06:49:00
9:56 PM,-26.0,-33.0,69,30.47,10.0,ESE,3.5,-,N/A,,Mostly Cloudy,110,2013-12-13 06:56:00
10:39 PM,-27.4,-34.6,69,30.44,2.5,ESE,3.5,-,N/A,,Haze,110,2013-12-13 07:39:00
10:47 PM,-27.4,-34.6,69,30.44,5.0,Calm,Calm,-,N/A,,Haze,0,2013-12-13 07:47:00
10:56 PM,-26.9,-33.9,69,30.47,3.0,Calm,Calm,-,N/A,,Haze,0,2013-12-13 07:56:00
11:03 PM,-27.4,-34.6,69,30.43,2.5,ESE,3.5,-,N/A,,Haze,110,2013-12-13 08:03:00
11:11 PM,-25.6,-32.8,69,30.43,9.0,ESE,3.5,-,N/A,,Overcast,110,2013-12-13 08:11:00
11:25 PM,-25.6,-32.8,69,30.42,1.8,ESE,3.5,-,N/A,,Haze,110,2013-12-13 08:25:00
11:29 PM,-25.6,-32.8,69,30.42,1.0,ESE,4.6,-,N/A,,Haze,110,2013-12-13 08:29:00
11:37 PM,-27.4,-34.6,69,30.41,0.8,ESE,4.6,-,N/A,,Haze,110,2013-12-13 08:37:00
11:56 PM,-27.4,-34.6,69,30.41,0.8,ESE,4.6,-,N/A,,Haze,110,2013-12-13 08:56:00